User: anonymous   Login
Location: Caltech
(34.1382°N, 118.1253°W)
Time: 14:51:38
(UTC-07:00)
Language:

Courier 1B - Orbit

View from above orbital plane
View from above orbital plane
View from above satellite
View from above satellite

Ground track
Ground track

The orbit data is extracted from the following two-line orbital elements,

1    58U 60013A   16151.94401930 +.00000095 +00000-0 +18901-4 0  9994
2    58 028.3284 035.3913 0164961 068.7281 293.0793 13.46302361739220
Epoch (UTC): 30 May 2016 22:39:23
Eccentricity: 0.0164961
inclination: 28.3284°
perigee height: 963 km
apogee height: 1209 km
right ascension of ascending node: 35.3913°
argument of perigee: 68.7281°
revolutions per day: 13.46302361
mean anomaly at epoch: 293.0793°
orbit number at epoch: 73922

The dashed part of the orbit path shows where the satellite is in the earth's shadow,  

DLR